• In Deutschland
  • Länderverzeichnis
  • Für 7 Tage
  • Wassertemperatur
  • Satellitenkarten
  • Wetterkarte
  • Widgets
  • user-avatar
    Anmelden

    Stündliche Wetter Xiancun

    Heute, 23 Juni, Samstag

    Zeit Temperatur Niederschläge Wind Luftdruck Luftfeuchtigkeit
    00:00 +26°C° 0,7 mm 1 m/S 734 mmHg 98%
    01:00 +26°C° 0,7 mm 1 m/S 734 mmHg 98%
    02:00 +26°C° 0 mm 1 m/S 733 mmHg 98%
    03:00 +26°C° 0,9 mm 1 m/S 733 mmHg 98%
    04:00 +26°C° 0,9 mm 1 m/S 734 mmHg 98%
    05:00 +26°C° 0,9 mm 1 m/S 734 mmHg 98%
    06:00 +27°C° 0,6 mm 1 m/S 734 mmHg 97%
    07:00 +27°C° 0,6 mm 1 m/S 734 mmHg 95%
    08:00 +28°C° 0 mm 1 m/S 735 mmHg 93%
    09:00 +29°C° 0,5 mm 1 m/S 735 mmHg 87%
    10:00 +30°C° 0,5 mm 2 m/S 735 mmHg 81%
    11:00 +32°C° 0,5 mm 2 m/S 735 mmHg 75%
    12:00 +32°C° 0,8 mm 2 m/S 734 mmHg 73%
    13:00 +32°C° 0,8 mm 2 m/S 734 mmHg 72%
    14:00 +32°C° 0 mm 2 m/S 734 mmHg 70%
    15:00 +32°C° 0,4 mm 2 m/S 734 mmHg 72%
    16:00 +31°C° 0,4 mm 2 m/S 734 mmHg 74%
    17:00 +31°C° 0,4 mm 2 m/S 734 mmHg 76%
    18:00 +30°C° 0,3 mm 1 m/S 734 mmHg 82%
    19:00 +28°C° 0,3 mm 1 m/S 734 mmHg 88%
    20:00 +27°C° 0,3 mm 1 m/S 734 mmHg 94%
    21:00 +27°C° 0 mm 1 m/S 734 mmHg 95%
    22:00 +26°C° 0 mm 1 m/S 734 mmHg 95%
    23:00 +26°C° 0 mm 1 m/S 735 mmHg 96%

    Morgen, 24 Juni, Sonntag

    Zeit Temperatur Niederschläge Wind Luftdruck Luftfeuchtigkeit
    00:00 +26°C° 0 mm 1 m/S 734 mmHg 96%
    01:00 +26°C° 0 mm 1 m/S 734 mmHg 96%
    02:00 +25°C° 0 mm 1 m/S 734 mmHg 96%
    03:00 +25°C° 0,2 mm 1 m/S 734 mmHg 96%
    04:00 +25°C° 0,2 mm 1 m/S 734 mmHg 96%
    05:00 +25°C° 0,2 mm 1 m/S 735 mmHg 95%
    06:00 +27°C° 0,2 mm 1 m/S 735 mmHg 90%
    07:00 +28°C° 0,2 mm 1 m/S 735 mmHg 85%
    08:00 +30°C° 0,2 mm 1 m/S 736 mmHg 81%
    09:00 +31°C° 1 mm 1 m/S 735 mmHg 76%
    10:00 +32°C° 1 mm 1 m/S 735 mmHg 72%
    11:00 +34°C° 1 mm 2 m/S 735 mmHg 68%
    12:00 +35°C° 1,1 mm 2 m/S 735 mmHg 67%
    13:00 +35°C° 1,1 mm 2 m/S 735 mmHg 66%
    14:00 +35°C° 1,1 mm 2 m/S 734 mmHg 65%
    15:00 +34°C° 1,1 mm 2 m/S 734 mmHg 71%
    16:00 +32°C° 1,1 mm 2 m/S 734 mmHg 76%
    17:00 +31°C° 1,1 mm 1 m/S 734 mmHg 82%
    18:00 +30°C° 0 mm 1 m/S 734 mmHg 85%
    19:00 +29°C° 0 mm 1 m/S 734 mmHg 88%
    20:00 +28°C° 0 mm 1 m/S 735 mmHg 92%
    21:00 +27°C° 0,1 mm 1 m/S 735 mmHg 92%
    22:00 +27°C° 0,1 mm 1 m/S 736 mmHg 92%
    23:00 +27°C° 0,1 mm 1 m/S 736 mmHg 92%

    übermorgen, 25 Juni, Montag

    Zeit Temperatur Niederschläge Wind Luftdruck Luftfeuchtigkeit
    00:00 +27°C° 0,1 mm 1 m/S 736 mmHg 92%
    01:00 +26°C° 0,1 mm 1 m/S 736 mmHg 92%
    02:00 +26°C° 0,1 mm 1 m/S 735 mmHg 92%
    03:00 +26°C° 0 mm 1 m/S 735 mmHg 92%
    04:00 +26°C° 0 mm 1 m/S 735 mmHg 92%
    05:00 +26°C° 0 mm 1 m/S 735 mmHg 93%
    06:00 +27°C° 0 mm 1 m/S 735 mmHg 87%
    07:00 +29°C° 0 mm 1 m/S 736 mmHg 81%
    08:00 +31°C° 0 mm 1 m/S 736 mmHg 75%
    09:00 +33°C° 0 mm 1 m/S 736 mmHg 68%
    10:00 +34°C° 0 mm 1 m/S 736 mmHg 60%
    11:00 +37°C° 0 mm 2 m/S 736 mmHg 53%
    12:00 +37°C° 0,2 mm 2 m/S 736 mmHg 55%
    13:00 +37°C° 0,2 mm 2 m/S 735 mmHg 57%
    14:00 +37°C° 0,2 mm 2 m/S 735 mmHg 59%
    15:00 +36°C° 0,9 mm 2 m/S 735 mmHg 65%
    16:00 +35°C° 0,9 mm 2 m/S 734 mmHg 70%
    17:00 +34°C° 0,9 mm 2 m/S 734 mmHg 76%
    18:00 +31°C° 0,9 mm 2 m/S 734 mmHg 82%
    19:00 +30°C° 0,9 mm 1 m/S 735 mmHg 87%
    20:00 +28°C° 0,9 mm 1 m/S 735 mmHg 93%
    21:00 +28°C° 0,1 mm 1 m/S 735 mmHg 94%
    22:00 +28°C° 0,1 mm 1 m/S 736 mmHg 95%
    23:00 +27°C° 0,1 mm 1 m/S 736 mmHg 96%

    26 Juni, Dienstag

    Zeit Temperatur Niederschläge Wind Luftdruck Luftfeuchtigkeit
    00:00 +27°C° 0 mm 1 m/S 736 mmHg 96%
    01:00 +27°C° 0 mm 1 m/S 736 mmHg 97%
    02:00 +27°C° 0 mm 1 m/S 736 mmHg 97%
    03:00 +26°C° 0 mm 1 m/S 736 mmHg 97%
    04:00 +26°C° 0 mm 1 m/S 736 mmHg 97%
    05:00 +26°C° 0 mm 1 m/S 735 mmHg 97%
    06:00 +27°C° 0 mm 1 m/S 736 mmHg 91%
    07:00 +29°C° 0 mm 1 m/S 736 mmHg 85%
    08:00 +30°C° 0 mm 1 m/S 737 mmHg 80%
    09:00 +32°C° 0 mm 1 m/S 737 mmHg 71%
    10:00 +35°C° 0 mm 2 m/S 737 mmHg 62%
    11:00 +36°C° 0 mm 2 m/S 737 mmHg 53%
    12:00 +37°C° 0 mm 2 m/S 736 mmHg 52%
    13:00 +37°C° 0 mm 3 m/S 736 mmHg 52%
    14:00 +38°C° 0 mm 3 m/S 736 mmHg 51%
    15:00 +37°C° 0,3 mm 3 m/S 735 mmHg 58%
    16:00 +36°C° 0,3 mm 2 m/S 735 mmHg 64%
    17:00 +35°C° 0,3 mm 2 m/S 735 mmHg 71%
    18:00 +32°C° 0,1 mm 2 m/S 735 mmHg 79%
    19:00 +30°C° 0,1 mm 1 m/S 736 mmHg 86%
    20:00 +28°C° 0,1 mm 1 m/S 736 mmHg 94%
    21:00 +28°C° 0 mm 1 m/S 736 mmHg 95%
    22:00 +27°C° 0 mm 1 m/S 736 mmHg 96%
    23:00 +27°C° 0 mm 1 m/S 736 mmHg 97%

    27 Juni, Mittwoch

    Zeit Temperatur Niederschläge Wind Luftdruck Luftfeuchtigkeit
    00:00 +27°C° 0 mm 1 m/S 736 mmHg 97%
    01:00 +27°C° 0 mm 1 m/S 736 mmHg 97%
    02:00 +26°C° 0 mm 1 m/S 736 mmHg 98%
    03:00 +26°C° 0 mm 1 m/S 735 mmHg 98%
    04:00 +26°C° 0 mm 1 m/S 735 mmHg 98%
    05:00 +26°C° 0 mm 1 m/S 735 mmHg 98%
    06:00 +28°C° 0 mm 1 m/S 736 mmHg 91%
    07:00 +29°C° 0 mm 1 m/S 736 mmHg 85%
    08:00 +31°C° 0 mm 1 m/S 736 mmHg 79%
    09:00 +33°C° 0 mm 1 m/S 736 mmHg 70%
    10:00 +34°C° 0 mm 1 m/S 736 mmHg 62%
    11:00 +37°C° 0 mm 2 m/S 736 mmHg 53%
    12:00 +37°C° 0,1 mm 2 m/S 735 mmHg 54%
    13:00 +37°C° 0,1 mm 2 m/S 735 mmHg 54%
    14:00 +37°C° 0,1 mm 2 m/S 734 mmHg 55%
    15:00 +37°C° 0,4 mm 2 m/S 734 mmHg 59%
    16:00 +36°C° 0,4 mm 2 m/S 734 mmHg 64%
    17:00 +35°C° 0,4 mm 2 m/S 734 mmHg 68%
    18:00 +32°C° 0,1 mm 1 m/S 734 mmHg 75%
    19:00 +30°C° 0,1 mm 1 m/S 734 mmHg 82%
    20:00 +28°C° 0,1 mm 1 m/S 735 mmHg 89%
    21:00 +28°C° 0 mm 1 m/S 735 mmHg 90%
    22:00 +28°C° 0 mm 1 m/S 735 mmHg 91%
    23:00 +25°C° 0 mm 0 m/S 735 mmHg 93%

    28 Juni, Donnerstag

    Zeit Temperatur Niederschläge Wind Luftdruck Luftfeuchtigkeit
    00:00 +25°C° 0 mm 0 m/S 735 mmHg 93%
    01:00 +25°C° 0 mm 0 m/S 735 mmHg 94%
    02:00 +25°C° 0 mm 0 m/S 734 mmHg 94%
    03:00 +24°C° 0 mm 0 m/S 734 mmHg 95%
    04:00 +24°C° 0 mm 0 m/S 734 mmHg 95%
    05:00 +24°C° 0 mm 0 m/S 734 mmHg 95%
    06:00 +26°C° 0 mm 0 m/S 735 mmHg 89%
    07:00 +30°C° 0 mm 1 m/S 735 mmHg 83%
    08:00 +31°C° 0 mm 1 m/S 735 mmHg 77%
    09:00 +33°C° 0 mm 1 m/S 735 mmHg 70%
    10:00 +35°C° 0 mm 2 m/S 735 mmHg 63%
    11:00 +36°C° 0 mm 2 m/S 735 mmHg 57%
    12:00 +36°C° 0,6 mm 2 m/S 734 mmHg 57%
    13:00 +36°C° 0,6 mm 2 m/S 734 mmHg 58%
    14:00 +37°C° 0,6 mm 2 m/S 733 mmHg 58%
    15:00 +36°C° 0,5 mm 2 m/S 733 mmHg 62%
    16:00 +35°C° 0,5 mm 2 m/S 733 mmHg 65%
    17:00 +34°C° 0,5 mm 1 m/S 733 mmHg 69%
    18:00 +32°C° 0,2 mm 1 m/S 733 mmHg 76%
    19:00 +30°C° 0,2 mm 1 m/S 733 mmHg 84%
    20:00 +28°C° 0,2 mm 1 m/S 734 mmHg 91%
    21:00 +28°C° 0,2 mm 1 m/S 734 mmHg 93%
    22:00 +27°C° 0,2 mm 1 m/S 734 mmHg 94%
    23:00 +27°C° 0,2 mm 1 m/S 734 mmHg 96%
    Mehr zeigen